Year,Month,Day,Hour,Minute,Value (Times are PST for temperature in C)
2019,02,15,00,00,-0.20
2019,02,15,00,01,-0.20
2019,02,15,00,02,-0.20
2019,02,15,00,03,-0.20
2019,02,15,00,04,-0.20
2019,02,15,00,05,-0.20
2019,02,15,00,06,-0.20
2019,02,15,00,07,-0.20
2019,02,15,00,08,-0.10
2019,02,15,00,09,-0.20
2019,02,15,00,10,-0.20
2019,02,15,00,11,-0.10
2019,02,15,00,12,-0.10
2019,02,15,00,13,-0.10
2019,02,15,00,14,-0.10
2019,02,15,00,15,-0.10
2019,02,15,00,16,-0.10
2019,02,15,00,17,-0.10
2019,02,15,00,18,-0.10
2019,02,15,00,19,-0.10
2019,02,15,00,20,-0.10
2019,02,15,00,21,-0.10
2019,02,15,00,22,-0.10
2019,02,15,00,23,-0.10
2019,02,15,00,24,-0.10
2019,02,15,00,25,-0.10
2019,02,15,00,26,-0.10
2019,02,15,00,27,-0.10
2019,02,15,00,28,-0.10
2019,02,15,00,29,-0.10
2019,02,15,00,30,-0.10
2019,02,15,00,31,-0.10
2019,02,15,00,32,-0.10
2019,02,15,00,33,-0.10
2019,02,15,00,34,-0.10
2019,02,15,00,35,-0.10
2019,02,15,00,36,-0.10
2019,02,15,00,37,-0.10
2019,02,15,00,38,-0.10
2019,02,15,00,39,-0.10
2019,02,15,00,40,-0.10
2019,02,15,00,41,-0.10
2019,02,15,00,42,-0.10
2019,02,15,00,43,0.00
2019,02,15,00,44,-0.10
2019,02,15,00,45,0.00
2019,02,15,00,46,0.00
2019,02,15,00,47,0.00
2019,02,15,00,48,0.00
2019,02,15,00,49,0.00
2019,02,15,00,50,0.00
2019,02,15,00,51,0.00
2019,02,15,00,52,0.00
2019,02,15,00,53,-0.10
2019,02,15,00,54,-0.10
2019,02,15,00,55,0.00
2019,02,15,00,56,0.00
2019,02,15,00,57,-0.10
2019,02,15,00,58,0.00
2019,02,15,00,59,0.00
2019,02,15,01,00,0.00
2019,02,15,01,01,0.00
2019,02,15,01,02,0.00
2019,02,15,01,03,0.00
2019,02,15,01,04,0.00
2019,02,15,01,05,0.00
2019,02,15,01,06,0.00
2019,02,15,01,07,0.00
2019,02,15,01,08,0.00
2019,02,15,01,09,0.00
2019,02,15,01,10,0.00
2019,02,15,01,11,0.00
2019,02,15,01,12,0.00
2019,02,15,01,13,0.00
2019,02,15,01,14,0.00
2019,02,15,01,15,0.00
2019,02,15,01,16,0.00
2019,02,15,01,17,0.00
2019,02,15,01,18,0.00
2019,02,15,01,19,0.00
2019,02,15,01,20,0.00
2019,02,15,01,21,0.00
2019,02,15,01,22,0.00
2019,02,15,01,23,0.00
2019,02,15,01,24,0.00
2019,02,15,01,25,0.10
2019,02,15,01,26,0.10
2019,02,15,01,27,0.10
2019,02,15,01,28,0.10
2019,02,15,01,29,0.10
2019,02,15,01,30,0.10
2019,02,15,01,31,0.10
2019,02,15,01,32,0.10
2019,02,15,01,33,0.10
2019,02,15,01,34,0.10
2019,02,15,01,35,0.10
2019,02,15,01,36,0.10
2019,02,15,01,37,0.10
2019,02,15,01,38,0.10
2019,02,15,01,39,0.10
2019,02,15,01,40,0.00
2019,02,15,01,41,0.00
2019,02,15,01,42,0.00
2019,02,15,01,43,0.00
2019,02,15,01,44,0.00
2019,02,15,01,45,0.00
2019,02,15,01,46,0.10
2019,02,15,01,47,0.00
2019,02,15,01,48,0.00
2019,02,15,01,49,0.00
2019,02,15,01,50,0.00
2019,02,15,01,51,0.00
2019,02,15,01,52,0.00
2019,02,15,01,53,0.00
2019,02,15,01,54,0.00
2019,02,15,01,55,0.00
2019,02,15,01,56,0.10
2019,02,15,01,57,0.10
2019,02,15,01,58,0.10
2019,02,15,01,59,0.00
2019,02,15,02,00,0.10
2019,02,15,02,01,0.00
2019,02,15,02,02,0.00
2019,02,15,02,03,0.00
2019,02,15,02,04,0.00
2019,02,15,02,05,0.00
2019,02,15,02,06,0.10
2019,02,15,02,07,0.10
2019,02,15,02,08,0.00
2019,02,15,02,09,0.10
2019,02,15,02,10,0.10
2019,02,15,02,11,0.10
2019,02,15,02,12,0.10
2019,02,15,02,13,0.00
2019,02,15,02,14,0.10
2019,02,15,02,15,0.10
2019,02,15,02,16,0.10
2019,02,15,02,17,0.10
2019,02,15,02,18,0.10
2019,02,15,02,19,0.10
2019,02,15,02,20,0.10
2019,02,15,02,21,0.00
2019,02,15,02,22,0.00
2019,02,15,02,23,0.00
2019,02,15,02,24,0.00
2019,02,15,02,25,0.00
2019,02,15,02,26,0.00
2019,02,15,02,27,0.00
2019,02,15,02,28,0.00
2019,02,15,02,29,0.00
2019,02,15,02,30,0.00
2019,02,15,02,31,0.00
2019,02,15,02,32,0.00
2019,02,15,02,33,0.00
2019,02,15,02,34,0.00
2019,02,15,02,35,0.00
2019,02,15,02,36,0.00
2019,02,15,02,37,0.00
2019,02,15,02,38,0.00
2019,02,15,02,39,0.00
2019,02,15,02,40,0.00
2019,02,15,02,41,0.00
2019,02,15,02,42,0.00
2019,02,15,02,43,0.00
2019,02,15,02,44,0.00
2019,02,15,02,45,0.00
2019,02,15,02,46,0.00
2019,02,15,02,47,-0.10
2019,02,15,02,48,-0.10
2019,02,15,02,49,-0.10
2019,02,15,02,50,-0.10
2019,02,15,02,51,-0.10
2019,02,15,02,52,-0.10
2019,02,15,02,53,-0.10
2019,02,15,02,54,-0.10
2019,02,15,02,55,-0.10
2019,02,15,02,56,-0.10
2019,02,15,02,57,-0.10
2019,02,15,02,58,-0.10
2019,02,15,02,59,-0.10
2019,02,15,03,00,-0.10
2019,02,15,03,01,-0.10
2019,02,15,03,02,-0.10
2019,02,15,03,03,-0.10
2019,02,15,03,04,-0.10
2019,02,15,03,05,-0.10
2019,02,15,03,06,-0.10
2019,02,15,03,07,-0.20
2019,02,15,03,08,-0.10
2019,02,15,03,09,-0.10
2019,02,15,03,10,-0.20
2019,02,15,03,11,-0.20
2019,02,15,03,12,-0.20
2019,02,15,03,13,-0.20
2019,02,15,03,14,-0.20
2019,02,15,03,15,-0.20
2019,02,15,03,16,-0.20
2019,02,15,03,17,-0.20
2019,02,15,03,18,-0.20
2019,02,15,03,19,-0.20
2019,02,15,03,20,-0.20
2019,02,15,03,21,-0.20
2019,02,15,03,22,-0.20
2019,02,15,03,23,-0.20
2019,02,15,03,24,-0.20
2019,02,15,03,25,-0.20
2019,02,15,03,26,-0.20
2019,02,15,03,27,-0.20
2019,02,15,03,28,-0.30
2019,02,15,03,29,-0.30
2019,02,15,03,30,-0.30
2019,02,15,03,31,-0.30
2019,02,15,03,32,-0.30
2019,02,15,03,33,-0.30
2019,02,15,03,34,-0.30
2019,02,15,03,35,-0.30
2019,02,15,03,36,-0.30
2019,02,15,03,37,-0.30
2019,02,15,03,38,-0.30
2019,02,15,03,39,-0.30
2019,02,15,03,40,-0.30
2019,02,15,03,41,-0.30
2019,02,15,03,42,-0.30
2019,02,15,03,43,-0.30
2019,02,15,03,44,-0.30
2019,02,15,03,45,-0.30
2019,02,15,03,46,-0.30
2019,02,15,03,47,-0.30
2019,02,15,03,48,-0.30
2019,02,15,03,49,-0.30
2019,02,15,03,50,-0.30
2019,02,15,03,51,-0.30
2019,02,15,03,52,-0.30
2019,02,15,03,53,-0.30
2019,02,15,03,54,-0.30
2019,02,15,03,55,-0.30
2019,02,15,03,56,-0.30
2019,02,15,03,57,-0.30
2019,02,15,03,58,-0.40
2019,02,15,03,59,-0.40
2019,02,15,04,00,-0.40
2019,02,15,04,01,-0.40
2019,02,15,04,02,-0.40
2019,02,15,04,03,-0.40
2019,02,15,04,04,-0.40
2019,02,15,04,05,-0.40
2019,02,15,04,06,-0.40
2019,02,15,04,07,-0.40
2019,02,15,04,08,-0.40
2019,02,15,04,09,-0.40
2019,02,15,04,10,-0.40
2019,02,15,04,11,-0.40
2019,02,15,04,12,-0.40
2019,02,15,04,13,-0.40
2019,02,15,04,14,-0.40
2019,02,15,04,15,-0.40
2019,02,15,04,16,-0.40
2019,02,15,04,17,-0.40
2019,02,15,04,18,-0.40
2019,02,15,04,19,-0.40
2019,02,15,04,20,-0.40
2019,02,15,04,21,-0.40
2019,02,15,04,22,-0.40
2019,02,15,04,23,-0.40
2019,02,15,04,24,-0.40
2019,02,15,04,25,-0.40
2019,02,15,04,26,-0.40
2019,02,15,04,27,-0.40
2019,02,15,04,28,-0.40
2019,02,15,04,29,-0.30
2019,02,15,04,30,-0.30
2019,02,15,04,31,-0.30
2019,02,15,04,32,-0.30
2019,02,15,04,33,-0.30
2019,02,15,04,34,-0.30
2019,02,15,04,35,-0.30
2019,02,15,04,36,-0.30
2019,02,15,04,37,-0.30
2019,02,15,04,38,-0.30
2019,02,15,04,39,-0.30
2019,02,15,04,40,-0.30
2019,02,15,04,41,-0.30
2019,02,15,04,42,-0.30
2019,02,15,04,43,-0.30
2019,02,15,04,44,-0.30
2019,02,15,04,45,-0.30
2019,02,15,04,46,-0.30
2019,02,15,04,47,-0.30
2019,02,15,04,48,-0.30
2019,02,15,04,49,-0.30
2019,02,15,04,50,-0.30
2019,02,15,04,51,-0.30
2019,02,15,04,52,-0.30
2019,02,15,04,53,-0.30
2019,02,15,04,54,-0.30
2019,02,15,04,55,-0.30
2019,02,15,04,56,-0.30
2019,02,15,04,57,-0.30
2019,02,15,04,58,-0.30
2019,02,15,04,59,-0.20
2019,02,15,05,00,-0.20
2019,02,15,05,01,-0.20
2019,02,15,05,02,-0.20
2019,02,15,05,03,-0.20
2019,02,15,05,04,-0.20
2019,02,15,05,05,-0.20
2019,02,15,05,06,-0.20
2019,02,15,05,07,-0.20
2019,02,15,05,08,-0.20
2019,02,15,05,09,-0.20
2019,02,15,05,10,-0.20
2019,02,15,05,11,-0.20
2019,02,15,05,12,-0.20
2019,02,15,05,13,-0.20
2019,02,15,05,14,-0.20
2019,02,15,05,15,-0.20
2019,02,15,05,16,-0.20
2019,02,15,05,17,-0.20
2019,02,15,05,18,-0.20
2019,02,15,05,19,-0.20
2019,02,15,05,20,-0.20
2019,02,15,05,21,-0.20
2019,02,15,05,22,-0.20
2019,02,15,05,23,-0.20
2019,02,15,05,24,-0.20
2019,02,15,05,25,-0.20
2019,02,15,05,26,-0.20
2019,02,15,05,27,-0.20
2019,02,15,05,28,-0.20
2019,02,15,05,29,-0.20
2019,02,15,05,30,-0.20
2019,02,15,05,31,-0.20
2019,02,15,05,32,-0.20
2019,02,15,05,33,-0.20
2019,02,15,08,38,0.30
2019,02,15,08,39,0.30
2019,02,15,08,40,0.40
2019,02,15,08,41,0.40
2019,02,15,08,42,0.40
2019,02,15,08,43,0.40
2019,02,15,08,44,0.40
2019,02,15,08,45,0.40
2019,02,15,08,46,0.50
2019,02,15,08,47,0.50
2019,02,15,08,48,0.50
2019,02,15,08,49,0.50
2019,02,15,08,50,0.50
2019,02,15,08,51,0.50
2019,02,15,08,52,0.60
2019,02,15,08,53,0.60
2019,02,15,08,54,0.60
2019,02,15,08,55,0.60
2019,02,15,08,56,0.60
2019,02,15,08,57,0.60
2019,02,15,08,58,0.60
2019,02,15,08,59,0.60
2019,02,15,09,00,0.60
2019,02,15,09,01,0.60
2019,02,15,09,02,0.60
2019,02,15,09,03,0.60
2019,02,15,09,04,0.60
2019,02,15,09,05,0.60
2019,02,15,09,06,0.60
2019,02,15,09,07,0.60
2019,02,15,09,08,0.60
2019,02,15,09,09,0.60
2019,02,15,09,10,0.70
2019,02,15,09,11,0.70
2019,02,15,09,12,0.70
2019,02,15,09,13,0.70
2019,02,15,09,14,0.70
2019,02,15,09,15,0.70
2019,02,15,09,16,0.80
2019,02,15,09,17,0.80
2019,02,15,09,18,0.80
2019,02,15,09,19,0.80
2019,02,15,09,20,0.90
2019,02,15,09,21,0.90
2019,02,15,09,22,0.90
2019,02,15,09,23,1.00
2019,02,15,09,24,1.00
2019,02,15,09,25,1.00
2019,02,15,09,26,1.10
2019,02,15,09,27,1.10
2019,02,15,09,28,1.10
2019,02,15,09,29,1.10
2019,02,15,09,30,1.20
2019,02,15,09,31,1.20
2019,02,15,09,32,1.20
2019,02,15,09,33,1.20
2019,02,15,09,34,1.20
2019,02,15,09,35,1.20
2019,02,15,09,36,1.20
2019,02,15,09,37,1.20
2019,02,15,09,38,1.30
2019,02,15,09,39,1.30
2019,02,15,09,40,1.30
2019,02,15,09,41,1.30
2019,02,15,09,42,1.30
2019,02,15,09,43,1.30
2019,02,15,09,44,1.30
2019,02,15,09,45,1.30
2019,02,15,09,46,1.30
2019,02,15,09,47,1.30
2019,02,15,09,48,1.30
2019,02,15,09,49,1.30
2019,02,15,09,50,1.30
2019,02,15,09,51,1.30
2019,02,15,09,52,1.30
2019,02,15,09,53,1.30
2019,02,15,09,54,1.30
2019,02,15,09,55,1.30
2019,02,15,09,56,1.30
2019,02,15,09,57,1.40
2019,02,15,09,58,1.40
2019,02,15,09,59,1.50
2019,02,15,10,00,1.50
2019,02,15,10,01,1.60
2019,02,15,10,02,1.60
2019,02,15,10,03,1.70
2019,02,15,10,04,1.70
2019,02,15,10,05,1.80
2019,02,15,10,06,1.80
2019,02,15,10,07,1.90
2019,02,15,10,08,1.90
2019,02,15,10,09,1.90
2019,02,15,10,10,2.00
2019,02,15,10,11,2.00
2019,02,15,10,12,2.10
2019,02,15,10,13,2.10
2019,02,15,10,14,2.10
2019,02,15,10,15,2.10
2019,02,15,10,16,2.30
2019,02,15,10,17,2.30
2019,02,15,10,18,2.30
2019,02,15,10,19,2.30
2019,02,15,10,20,2.30
2019,02,15,10,21,2.30
2019,02,15,10,22,2.30
2019,02,15,10,23,2.20
2019,02,15,10,24,2.20
2019,02,15,10,25,2.20
2019,02,15,10,26,2.10
2019,02,15,10,27,2.10
2019,02,15,10,28,2.10
2019,02,15,10,29,2.00
2019,02,15,10,30,2.00
2019,02,15,10,31,1.90
2019,02,15,10,32,1.90
2019,02,15,10,33,1.90
2019,02,15,10,34,1.90
2019,02,15,10,35,1.90
2019,02,15,10,36,1.90
2019,02,15,10,37,1.90
2019,02,15,10,38,1.80
2019,02,15,10,39,1.80
2019,02,15,10,40,1.80
2019,02,15,10,41,1.80
2019,02,15,10,42,1.80
2019,02,15,10,43,1.80
2019,02,15,10,44,1.80
2019,02,15,10,45,1.80
2019,02,15,10,46,1.80
2019,02,15,10,47,1.80
2019,02,15,10,48,1.70
2019,02,15,10,49,1.70
2019,02,15,10,50,1.70
2019,02,15,10,51,1.70
2019,02,15,10,52,1.70
2019,02,15,10,53,1.70
2019,02,15,10,54,1.70
2019,02,15,10,55,1.70
2019,02,15,10,56,1.70
2019,02,15,10,57,1.70
2019,02,15,10,58,1.80
2019,02,15,10,59,1.80
2019,02,15,11,00,1.80
2019,02,15,11,01,1.80
2019,02,15,11,02,1.80
2019,02,15,11,03,1.80
2019,02,15,11,04,1.80
2019,02,15,11,05,1.80
2019,02,15,11,06,1.90
2019,02,15,11,07,1.90
2019,02,15,11,08,1.90
2019,02,15,11,09,1.90
2019,02,15,11,10,1.90
2019,02,15,11,11,1.90
2019,02,15,11,12,1.90
2019,02,15,11,13,2.00
2019,02,15,11,14,2.00
2019,02,15,11,15,2.10
2019,02,15,11,16,2.10
2019,02,15,11,17,2.10
2019,02,15,11,18,2.20
2019,02,15,11,19,2.20
2019,02,15,11,20,2.20
2019,02,15,11,21,2.20
2019,02,15,11,22,2.20
2019,02,15,11,23,2.30
2019,02,15,11,24,2.30
2019,02,15,11,25,2.30
2019,02,15,11,26,2.30
2019,02,15,11,27,2.30
2019,02,15,11,28,2.40
2019,02,15,11,29,2.40
2019,02,15,11,30,2.40
2019,02,15,11,31,2.40
2019,02,15,11,32,2.40
2019,02,15,11,33,2.40
2019,02,15,11,34,2.40
2019,02,15,11,35,2.40
2019,02,15,11,36,2.40
2019,02,15,11,37,2.40
2019,02,15,11,38,2.40
2019,02,15,11,39,2.40
2019,02,15,11,40,2.40
2019,02,15,11,41,2.40
2019,02,15,11,42,2.40
2019,02,15,11,43,2.40
2019,02,15,11,44,2.40
2019,02,15,11,45,2.50
2019,02,15,11,46,2.50
2019,02,15,11,47,2.50
2019,02,15,11,48,2.60
2019,02,15,11,49,2.60
2019,02,15,11,50,2.60
2019,02,15,11,51,2.60
2019,02,15,11,52,2.60
2019,02,15,11,53,2.60
2019,02,15,11,54,2.60
2019,02,15,11,55,2.60
2019,02,15,11,56,2.60
2019,02,15,11,57,2.60
2019,02,15,11,58,2.60
2019,02,15,11,59,2.60
2019,02,15,12,00,2.60
2019,02,15,12,01,2.50
2019,02,15,12,02,2.50
2019,02,15,12,03,2.50
2019,02,15,12,04,2.50
2019,02,15,12,05,2.40
2019,02,15,12,06,2.40
2019,02,15,12,07,2.40
2019,02,15,12,08,2.40
2019,02,15,12,09,2.40
2019,02,15,12,10,2.40
2019,02,15,12,11,2.40
2019,02,15,12,12,2.40
2019,02,15,12,13,2.40
2019,02,15,12,14,2.40
2019,02,15,12,15,2.40
2019,02,15,12,16,2.40
2019,02,15,12,17,2.40
2019,02,15,12,18,2.50
2019,02,15,12,19,2.50
2019,02,15,12,20,2.50
2019,02,15,12,21,2.50
2019,02,15,12,22,2.60
2019,02,15,12,23,2.60
2019,02,15,12,24,2.60
2019,02,15,12,25,2.60
2019,02,15,12,26,2.60
2019,02,15,12,27,2.60
2019,02,15,12,28,2.60
2019,02,15,12,29,2.60
2019,02,15,12,30,2.60
2019,02,15,12,31,2.60
2019,02,15,12,32,2.60
2019,02,15,12,33,2.70
2019,02,15,12,34,2.70
2019,02,15,12,35,2.70
2019,02,15,12,36,2.70
2019,02,15,12,37,2.70
2019,02,15,12,38,2.70
2019,02,15,12,39,2.70
2019,02,15,12,40,2.70
2019,02,15,12,41,2.60
2019,02,15,12,42,2.60
2019,02,15,12,43,2.60
2019,02,15,12,44,2.60
2019,02,15,12,45,2.60
2019,02,15,12,46,2.60
2019,02,15,12,47,2.60
2019,02,15,12,48,2.70
2019,02,15,12,49,2.70
2019,02,15,12,50,2.70
2019,02,15,12,51,2.70
2019,02,15,12,52,2.70
2019,02,15,12,53,2.70
2019,02,15,12,54,2.80
2019,02,15,12,55,2.80
2019,02,15,12,56,2.80
2019,02,15,12,57,2.80
2019,02,15,12,58,2.80
2019,02,15,12,59,2.80
2019,02,15,13,00,2.80
2019,02,15,13,01,2.80
2019,02,15,13,02,2.80
2019,02,15,13,03,2.80
2019,02,15,13,04,2.80
2019,02,15,13,05,2.80
2019,02,15,13,06,2.80
2019,02,15,13,07,2.80
2019,02,15,13,08,2.80
2019,02,15,13,09,2.80
2019,02,15,13,10,2.80
2019,02,15,13,11,2.80
2019,02,15,13,12,2.80
2019,02,15,13,13,2.80
2019,02,15,13,14,2.90
2019,02,15,13,15,2.90
2019,02,15,13,16,2.90
2019,02,15,13,17,3.00
2019,02,15,13,18,3.00
2019,02,15,13,19,3.00
2019,02,15,13,20,3.10
2019,02,15,13,21,3.10
2019,02,15,13,22,3.10
2019,02,15,13,23,3.10
2019,02,15,13,24,3.20
2019,02,15,13,25,3.20
2019,02,15,13,26,3.20
2019,02,15,13,27,3.20
2019,02,15,13,28,3.20
2019,02,15,13,29,3.20
2019,02,15,13,30,3.20
2019,02,15,13,31,3.20
2019,02,15,13,32,3.30
2019,02,15,13,33,3.30
2019,02,15,13,34,3.30
2019,02,15,13,35,3.30
2019,02,15,13,36,3.30
2019,02,15,13,37,3.30
2019,02,15,13,38,3.30
2019,02,15,13,39,3.30
2019,02,15,13,40,3.40
2019,02,15,13,41,3.40
2019,02,15,13,42,3.40
2019,02,15,13,43,3.40
2019,02,15,13,44,3.40
2019,02,15,13,45,3.40
2019,02,15,13,46,3.30
2019,02,15,13,47,3.30
2019,02,15,13,48,3.30
2019,02,15,13,49,3.30
2019,02,15,13,50,3.30
2019,02,15,13,51,3.30
2019,02,15,13,52,3.40
2019,02,15,13,53,3.40
2019,02,15,13,54,3.40
2019,02,15,13,55,3.40
2019,02,15,13,56,3.40
2019,02,15,13,57,3.40
2019,02,15,13,58,3.50
2019,02,15,13,59,3.50
2019,02,15,14,00,3.50
2019,02,15,14,01,3.50
2019,02,15,14,02,3.60
2019,02,15,14,03,3.60
2019,02,15,14,04,3.70
2019,02,15,14,05,3.70
2019,02,15,14,06,3.70
2019,02,15,14,07,3.70
2019,02,15,14,08,3.70
2019,02,15,14,09,3.80
2019,02,15,14,10,3.80
2019,02,15,14,11,3.80
2019,02,15,14,12,3.80
2019,02,15,14,13,3.80
2019,02,15,14,14,3.80
2019,02,15,14,15,3.80
2019,02,15,14,16,3.80
2019,02,15,14,17,3.80
2019,02,15,14,18,3.70
2019,02,15,14,19,3.70
2019,02,15,14,20,3.70
2019,02,15,14,21,3.70
2019,02,15,14,22,3.40
2019,02,15,14,23,3.30
2019,02,15,14,24,3.30
2019,02,15,14,25,3.20
2019,02,15,14,26,3.20
2019,02,15,14,27,3.20
2019,02,15,14,28,3.20
2019,02,15,14,29,3.20
2019,02,15,14,30,3.20
2019,02,15,14,31,3.10
2019,02,15,14,32,3.10
2019,02,15,14,33,3.10
2019,02,15,14,34,3.10
2019,02,15,14,35,3.10
2019,02,15,14,36,3.10
2019,02,15,14,37,3.10
2019,02,15,14,38,3.10
2019,02,15,14,39,3.10
2019,02,15,14,40,3.10
2019,02,15,14,41,3.10
2019,02,15,14,42,3.10
2019,02,15,14,43,3.20
2019,02,15,14,44,3.20
2019,02,15,14,45,3.20
2019,02,15,14,46,3.20
2019,02,15,14,47,3.20
2019,02,15,14,48,3.30
2019,02,15,14,49,3.30
2019,02,15,14,50,3.30
2019,02,15,14,51,3.30
2019,02,15,14,52,3.30
2019,02,15,14,53,3.30
2019,02,15,14,54,3.20
2019,02,15,14,55,3.20
2019,02,15,14,56,3.20
2019,02,15,14,57,3.10
2019,02,15,14,58,3.10
2019,02,15,14,59,3.10
2019,02,15,15,00,3.10
2019,02,15,15,01,3.10
2019,02,15,15,02,3.00
2019,02,15,15,03,3.00
2019,02,15,15,04,3.00
2019,02,15,15,05,3.00
2019,02,15,15,06,3.00
2019,02,15,15,07,3.00
2019,02,15,15,08,3.00
2019,02,15,15,09,3.00
2019,02,15,15,10,3.00
2019,02,15,15,11,3.00
2019,02,15,15,12,3.00
2019,02,15,15,13,3.10
2019,02,15,15,14,3.10
2019,02,15,15,15,3.10
2019,02,15,15,16,3.10
2019,02,15,15,17,3.10
2019,02,15,15,18,3.10
2019,02,15,15,19,3.20
2019,02,15,15,20,3.20
2019,02,15,15,21,3.20
2019,02,15,15,22,3.20
2019,02,15,15,23,3.20
2019,02,15,15,24,3.20
2019,02,15,15,25,3.20
2019,02,15,15,26,3.10
2019,02,15,15,27,3.10
2019,02,15,15,28,3.10
2019,02,15,15,29,3.10
2019,02,15,15,30,3.20
2019,02,15,15,31,3.20
2019,02,15,15,32,3.20
2019,02,15,15,33,3.20
2019,02,15,15,34,3.20
2019,02,15,15,35,3.20
2019,02,15,15,36,3.20
2019,02,15,15,37,3.20
2019,02,15,15,38,3.20
2019,02,15,15,39,3.20
2019,02,15,15,40,3.20
2019,02,15,15,41,3.20
2019,02,15,15,42,3.20
2019,02,15,15,43,3.20
2019,02,15,15,44,3.20
2019,02,15,15,45,3.20
2019,02,15,15,46,3.20
2019,02,15,15,47,3.20
2019,02,15,15,48,3.20
2019,02,15,15,49,3.20
2019,02,15,15,50,3.20
2019,02,15,15,51,3.20
2019,02,15,15,52,3.20
2019,02,15,15,53,3.20
2019,02,15,15,54,3.20
2019,02,15,15,55,3.20
2019,02,15,15,56,3.20
2019,02,15,15,57,3.20
2019,02,15,15,58,3.20
2019,02,15,15,59,3.20
2019,02,15,16,00,3.10
2019,02,15,16,01,2.90
2019,02,15,16,02,2.90
2019,02,15,16,03,2.90
2019,02,15,16,04,2.90
2019,02,15,16,05,2.90
2019,02,15,16,06,2.90
2019,02,15,16,07,2.90
2019,02,15,16,08,2.90
2019,02,15,16,09,2.90
2019,02,15,16,10,2.80
2019,02,15,16,11,2.80
2019,02,15,16,12,2.80
2019,02,15,16,13,2.80
2019,02,15,16,14,2.80
2019,02,15,16,15,2.80
2019,02,15,16,16,2.80
2019,02,15,16,17,2.80
2019,02,15,16,18,2.80
2019,02,15,16,19,2.80
2019,02,15,16,20,2.80
2019,02,15,16,21,2.80
2019,02,15,16,22,2.70
2019,02,15,16,23,2.70
2019,02,15,16,24,2.70
2019,02,15,16,25,2.70
2019,02,15,16,26,2.60
2019,02,15,16,27,2.60
2019,02,15,16,28,2.60
2019,02,15,16,29,2.50
2019,02,15,16,30,2.50
2019,02,15,16,31,2.50
2019,02,15,16,32,2.40
2019,02,15,16,33,2.40
2019,02,15,16,34,2.40
2019,02,15,16,35,2.40
2019,02,15,16,36,2.40
2019,02,15,16,37,2.40
2019,02,15,16,38,2.30
2019,02,15,16,39,2.30
2019,02,15,16,40,2.30
2019,02,15,16,41,2.30
2019,02,15,16,42,2.30
2019,02,15,16,43,2.20
2019,02,15,16,44,2.20
2019,02,15,16,45,2.20
2019,02,15,16,46,2.20
2019,02,15,16,47,2.20
2019,02,15,16,48,2.20
2019,02,15,16,49,2.20
2019,02,15,16,50,2.20
2019,02,15,16,51,2.10
2019,02,15,16,52,2.20
2019,02,15,16,53,2.20
2019,02,15,16,54,2.20
2019,02,15,16,55,2.20
2019,02,15,16,56,2.20
2019,02,15,16,57,2.20
2019,02,15,16,58,2.20
2019,02,15,16,59,2.10
2019,02,15,17,00,2.10
2019,02,15,17,01,2.10
2019,02,15,17,02,2.10
2019,02,15,17,03,2.10
2019,02,15,17,04,2.10
2019,02,15,17,05,2.10
2019,02,15,17,06,2.20
2019,02,15,17,07,2.20
2019,02,15,17,08,2.20
2019,02,15,17,09,2.20
2019,02,15,17,10,2.20
2019,02,15,17,11,2.20
2019,02,15,17,12,2.20
2019,02,15,17,13,2.20
2019,02,15,17,14,2.10
2019,02,15,17,15,2.10
2019,02,15,17,16,2.10
2019,02,15,17,17,2.10
2019,02,15,17,18,2.10
2019,02,15,17,19,2.00
2019,02,15,17,20,1.90
2019,02,15,17,21,1.90
2019,02,15,17,22,1.90
2019,02,15,17,23,1.90
2019,02,15,17,24,1.90
2019,02,15,17,25,1.90
2019,02,15,17,26,1.80
2019,02,15,17,27,1.80
2019,02,15,17,28,1.80
2019,02,15,17,29,1.70
2019,02,15,17,30,1.70
2019,02,15,17,31,1.70
2019,02,15,17,32,1.70
2019,02,15,17,33,1.70
2019,02,15,17,34,1.70
2019,02,15,17,35,1.70
2019,02,15,17,36,1.70
2019,02,15,17,37,1.70
2019,02,15,17,38,1.70
2019,02,15,17,39,1.70
2019,02,15,17,40,1.70
2019,02,15,17,41,1.70
2019,02,15,17,42,1.70
2019,02,15,17,58,1.50
2019,02,15,17,59,1.50
2019,02,15,18,00,1.40
2019,02,15,18,01,1.40
2019,02,15,18,02,1.40
2019,02,15,18,03,1.30
2019,02,15,18,04,1.30
2019,02,15,18,05,1.30
2019,02,15,18,06,1.30
2019,02,15,18,07,1.30
2019,02,15,18,08,1.30
2019,02,15,18,09,1.20
2019,02,15,18,10,1.20
2019,02,15,18,11,1.20
2019,02,15,18,12,1.20
2019,02,15,18,13,1.10
2019,02,15,18,14,1.10
2019,02,15,18,15,1.10
2019,02,15,18,16,1.20
2019,02,15,18,17,1.20
2019,02,15,18,18,1.20
2019,02,15,18,19,1.20
2019,02,15,18,20,1.20
2019,02,15,18,21,1.20
2019,02,15,18,22,1.10
2019,02,15,18,23,1.10
2019,02,15,18,24,1.10
2019,02,15,18,25,1.10
2019,02,15,18,26,1.10
2019,02,15,18,27,1.10
2019,02,15,18,28,1.10
2019,02,15,18,29,1.00
2019,02,15,18,30,0.90
2019,02,15,18,31,0.90
2019,02,15,18,32,0.90
2019,02,15,18,33,0.90
2019,02,15,18,34,0.80
2019,02,15,18,35,0.80
2019,02,15,18,36,0.80
2019,02,15,18,37,0.80
2019,02,15,18,38,0.80
2019,02,15,18,39,0.80
2019,02,15,18,40,0.80
2019,02,15,18,41,0.80
2019,02,15,18,42,0.80
2019,02,15,18,43,0.80
2019,02,15,18,44,0.80
2019,02,15,18,45,0.80
2019,02,15,18,46,0.80
2019,02,15,18,47,0.80
2019,02,15,18,48,0.80
2019,02,15,18,49,0.80
2019,02,15,18,50,0.80
2019,02,15,18,51,0.70
2019,02,15,18,52,0.70
2019,02,15,18,53,0.70
2019,02,15,18,54,0.70
2019,02,15,18,55,0.70
2019,02,15,18,56,0.70
2019,02,15,18,57,0.70
2019,02,15,18,58,0.70
2019,02,15,18,59,0.70
2019,02,15,19,00,0.70
2019,02,15,19,01,0.70
2019,02,15,19,02,0.70
2019,02,15,19,03,0.70
2019,02,15,19,04,0.70
2019,02,15,19,05,0.60
2019,02,15,19,06,0.60
2019,02,15,19,07,0.60
2019,02,15,19,08,0.60
2019,02,15,19,09,0.60
2019,02,15,19,10,0.60
2019,02,15,19,11,0.60
2019,02,15,19,12,0.60
2019,02,15,19,13,0.50
2019,02,15,19,14,0.50
2019,02,15,19,15,0.50
2019,02,15,19,16,0.50
2019,02,15,19,17,0.50
2019,02,15,19,18,0.50
2019,02,15,19,19,0.50
2019,02,15,19,20,0.50
2019,02,15,19,21,0.50
2019,02,15,19,22,0.60
2019,02,15,19,23,0.60
2019,02,15,19,24,0.60
2019,02,15,19,25,0.60
2019,02,15,19,26,0.60
2019,02,15,19,27,0.60
2019,02,15,19,28,0.60
2019,02,15,19,29,0.60
2019,02,15,19,30,0.60
2019,02,15,19,31,0.60
2019,02,15,19,32,0.60
2019,02,15,19,33,0.60
2019,02,15,19,34,0.50
2019,02,15,19,35,0.50
2019,02,15,19,36,0.50
2019,02,15,19,37,0.50
2019,02,15,19,38,0.50
2019,02,15,19,39,0.50
2019,02,15,19,40,0.50
2019,02,15,19,41,0.50
2019,02,15,19,42,0.50
2019,02,15,19,43,0.50
2019,02,15,19,44,0.40
2019,02,15,19,45,0.40
2019,02,15,19,46,0.40
2019,02,15,19,47,0.40
2019,02,15,19,48,0.40
2019,02,15,19,49,0.40
2019,02,15,19,50,0.40
2019,02,15,19,51,0.40
2019,02,15,19,52,0.40
2019,02,15,19,53,0.40
2019,02,15,19,54,0.40
2019,02,15,19,55,0.40
2019,02,15,19,56,0.40
2019,02,15,19,57,0.40
2019,02,15,19,58,0.40
2019,02,15,19,59,0.40
2019,02,15,20,00,0.40
2019,02,15,20,01,0.40
2019,02,15,20,02,0.40
2019,02,15,20,03,0.40
2019,02,15,20,04,0.40
2019,02,15,20,05,0.40
2019,02,15,20,06,0.30
2019,02,15,20,07,0.30
2019,02,15,20,08,0.30
2019,02,15,20,09,0.30
2019,02,15,20,10,0.30
2019,02,15,20,11,0.30
2019,02,15,20,12,0.30
2019,02,15,20,13,0.30
2019,02,15,20,14,0.30
2019,02,15,20,15,0.30
2019,02,15,20,16,0.30
2019,02,15,20,17,0.30
2019,02,15,20,18,0.30
2019,02,15,20,19,0.30
2019,02,15,20,20,0.30
2019,02,15,20,21,0.30
2019,02,15,20,22,0.30
2019,02,15,20,23,0.30
2019,02,15,20,24,0.30
2019,02,15,20,25,0.30
2019,02,15,20,26,0.30
2019,02,15,20,27,0.30
2019,02,15,20,28,0.40
2019,02,15,20,29,0.30
2019,02,15,20,30,0.30
2019,02,15,20,31,0.40
2019,02,15,20,32,0.30
2019,02,15,20,33,0.40
2019,02,15,20,34,0.40
2019,02,15,20,35,0.30
2019,02,15,20,36,0.40
2019,02,15,20,37,0.30
2019,02,15,20,38,0.30
2019,02,15,20,39,0.30
2019,02,15,20,40,0.30
2019,02,15,20,41,0.30
2019,02,15,20,42,0.30
2019,02,15,20,43,0.30
2019,02,15,20,44,0.30
2019,02,15,20,45,0.30
2019,02,15,20,46,0.30
2019,02,15,20,47,0.30
2019,02,15,20,48,0.30
2019,02,15,20,49,0.30
2019,02,15,20,50,0.30
2019,02,15,20,51,0.30
2019,02,15,20,52,0.30
2019,02,15,20,53,0.30
2019,02,15,20,54,0.30
2019,02,15,20,55,0.30
2019,02,15,20,56,0.30
2019,02,15,20,57,0.40
2019,02,15,20,58,0.40
2019,02,15,20,59,0.40
2019,02,15,21,00,0.40
2019,02,15,21,01,0.40
2019,02,15,21,02,0.40
2019,02,15,21,03,0.40
2019,02,15,21,04,0.40
2019,02,15,21,05,0.40
2019,02,15,21,06,0.30
2019,02,15,21,07,0.30
2019,02,15,21,08,0.30
2019,02,15,21,09,0.30
2019,02,15,21,10,0.40
2019,02,15,21,11,0.40
2019,02,15,21,12,0.40
2019,02,15,21,13,0.40
2019,02,15,21,14,0.40
2019,02,15,21,15,0.40
2019,02,15,21,16,0.40